User: anonymous   Login
Location: Muenchen
(48.1800°N, 11.5800°E)
Time: 10:38:42
(UTC+02:00)
Language:

Tiros 1 - Orbit

View from above orbital plane
View from above orbital plane
View from above satellite
View from above satellite

Ground track
Ground track

The orbit data is extracted from the following two-line orbital elements,

1 00029U 60002B   18114.16766538 -.00000096  00000-0  16753-4 0  9998
2 00029  48.3804  54.2967 0023536 113.4841 246.8547 14.74240383102784
Epoch (UTC): 24 April 2018 04:01:26
Eccentricity: 0.0023536
inclination: 48.3804°
perigee height: 631 km
apogee height: 664 km
right ascension of ascending node: 54.2967°
argument of perigee: 113.4841°
revolutions per day: 14.74240383
mean anomaly at epoch: 246.8547°
orbit number at epoch: 10278

The dashed part of the orbit path shows where the satellite is in the earth's shadow,  

DLR